Location: Houhaj�rvi
(61.2833°N, 23.0000°E)
Time: 09:49:05
(UTC+00:00)

Cosmos 1500 - Pass Details

Date: 27 February 2020
Orbit: 498 x 521 km, 82.5° (Epoch: 03 April)

Event Time Altitude Azimuth Distance (km) Brightness Sun altitude
Exits shadow 17:39:57 24° 76° (ENE) 1,128 4.4 -14.4°
Drops below altitude 10° 17:42:38 10° 33° (NNE) 1,774 5.7 -14.7°
Sets 17:45:03 0° 20° (NNE) 2,668 6.7 -15.0°
